Wind_Speed
19 17 16 15 13 10 7 6 4 2 2 3 5 7 8 10 11 13 14 15 16 17 17 17 17 18 17 17 16 16 14 13 12 11 10 10 9 7 5 4 3 2 2 2
21 19 18 17 14 12 9 7 5 3 1 2 3 5 6 8 9 10 12 13 14 15 15 16 16 16 17 16 16 16 15 14 12 10 9 9 9 7 7 5 4 3 2 2
23 22 21 19 17 14 11 9 6 5 4 3 3 3 5 7 8 9 11 12 13 14 14 14 14 15 16 15 15 15 15 14 13 11 10 9 8 7 6 5 5 4 3 3
25 25 23 21 19 16 14 11 9 7 7 6 5 4 4 6 7 8 10 11 12 13 13 13 14 14 15 15 14 15 14 13 12 11 10 9 8 7 6 5 5 5 4 4
27 26 24 23 20 18 16 14 12 11 10 9 7 7 5 6 7 7 9 11 11 14 13 13 14 14 14 14 14 14 13 13 12 12 10 9 8 8 7 6 6 5 4 3
28 27 25 24 22 20 18 16 14 14 12 11 9 8 7 6 7 7 9 11 12 14 12 12 13 14 14 13 13 13 13 13 12 11 11 10 9 8 7 7 6 5 4 4
29 28 27 25 24 22 20 17 16 15 14 13 11 10 7 7 6 7 9 11 13 13 12 11 13 13 13 13 13 12 12 12 12 12 11 10 9 8 8 7 7 6 5 5
29 28 27 26 25 22 21 19 18 17 15 14 14 12 9 8 7 7 9 11 11 12 11 11 12 12 13 12 13 13 12 12 12 11 11 10 10 9 8 8 8 8 7 6
29 28 27 27 25 24 23 22 20 18 17 17 16 13 11 8 7 7 9 10 10 12 12 12 12 12 13 13 12 13 13 12 12 11 11 10 10 9 8 8 9 9 9 8
30 29 28 28 27 25 24 23 21 20 19 18 17 15 12 10 8 9 9 9 10 12 12 12 12 12 12 12 14 13 13 12 11 11 11 10 10 10 10 9 9 10 9 8
31 30 30 28 28 26 25 24 22 21 21 19 18 15 13 12 11 9 9 9 10 11 12 12 13 13 13 13 14 13 12 12 12 12 12 12 11 11 11 11 11 11 10 10
32 32 31 30 29 28 26 24 23 22 21 20 18 15 14 13 12 10 10 10 11 12 12 12 13 13 14 14 14 13 12 13 13 13 13 12 12 12 12 12 12 12 12 11
33 33 32 32 31 29 27 25 23 23 22 21 19 16 15 14 13 12 11 11 11 11 11 11 13 15 15 15 14 13 13 13 13 13 13 13 13 13 13 13 13 13 13 12
34 33 33 32 30 29 28 26 25 24 24 22 21 18 16 15 14 14 13 12 11 11 11 12 14 15 15 15 14 13 13 13 14 14 15 15 14 14 14 14 14 14 13 13
35 34 33 31 31 30 29 27 27 25 24 23 21 20 18 16 15 14 14 13 12 11 12 13 14 15 15 15 14 14 14 14 15 15 15 16 15 14 15 15 15 15 14 14
35 34 33 32 31 31 30 29 28 27 25 23 21 19 18 17 16 15 15 14 13 13 14 15 15 16 16 16 16 16 16 16 16 16 16 16 16 15 15 16 15 15 16 15
34 34 33 33 33 33 33 30 29 28 26 24 22 19 18 17 17 16 16 16 15 14 15 15 17 18 18 17 17 17 18 18 18 18 18 18 17 16 16 16 16 16 16 16
34 34 33 33 34 36 34 32 31 29 28 26 24 22 20 19 18 18 17 17 17 17 17 18 19 19 19 19 20 19 19 19 20 19 18 18 18 18 17 17 17 17 17 17
34 34 34 34 35 36 36 34 33 32 30 28 26 24 22 21 20 19 18 18 18 19 19 20 21 20 20 21 21 21 20 20 20 20 19 19 19 19 19 19 19 19 18 18
35 35 35 35 35 36 35 35 34 33 32 30 28 26 25 23 22 20 19 20 20 21 21 21 22 22 22 23 22 22 22 22 22 21 20 20 21 21 20 20 20 19 19 20
37 37 37 36 36 35 34 34 33 34 32 31 30 28 27 26 24 22 22 23 23 23 23 24 24 25 25 25 24 24 24 24 24 22 20 21 22 22 21 22 22 22 22 22
39 39 38 38 37 36 34 34 34 34 33 32 31 30 29 28 26 26 25 25 26 26 26 27 27 27 26 26 26 25 25 25 24 24 23 23 23 23 23 23 23 24 24 24
42 41 40 39 38 37 36 35 35 35 34 34 33 32 31 30 29 28 28 27 27 28 28 29 28 28 28 27 27 27 26 25 25 24 24 24 24 24 25 24 24 24 25 25
43 43 42 41 40 38 37 36 35 35 35 35 34 34 33 32 31 31 30 30 30 30 30 31 30 29 30 29 29 29 27 26 26 25 26 26 26 26 26 25 25 25 25 25
45 44 43 42 41 40 39 38 36 35 35 34 35 35 35 34 33 34 34 33 32 32 32 31 30 31 30 29 28 28 28 28 27 27 27 27 27 28 26 25 26 26 26 26
45 44 44 43 41 40 39 38 37 36 35 34 33 34 34 35 35 35 35 35 35 34 33 32 31 31 31 30 30 29 29 29 28 28 28 28 28 28 27 26 26 27 27 27
Wind_Direction
194 194 196 197 196 197 192 177 168 140 78 64 59 49 36 26 21 18 17 17 18 18 19 19 19 19 20 21 23 21 18 14 17 24 30 30 31 31 30 24 12 333 290 265
195 197 201 203 206 210 208 206 207 216 262 1 26 24 22 20 20 15 11 11 12 12 12 14 14 16 18 19 20 19 17 18 17 17 24 22 22 28 27 21 9 360 352 302
197 199 204 207 212 218 218 223 227 246 270 306 340 3 6 6 14 13 9 7 6 7 6 8 11 13 15 16 16 15 17 18 18 16 20 19 17 18 17 16 7 352 330 322
200 202 207 210 215 220 225 231 233 245 265 281 304 326 338 348 356 360 359 360 359 0 0 5 9 11 12 11 12 13 14 15 15 15 15 14 11 10 11 9 1 352 330 307
204 207 210 212 216 222 228 234 238 244 256 270 284 297 322 329 338 342 350 353 354 358 356 359 2 6 8 8 8 10 11 13 12 12 12 12 6 3 4 360 358 356 348 318
207 210 212 214 218 223 229 235 242 248 253 261 271 285 309 309 321 332 345 350 350 351 352 356 357 1 5 6 5 5 7 8 9 11 10 8 3 1 357 351 350 347 334 318
210 212 214 217 221 226 231 236 243 246 250 258 266 278 300 308 315 331 341 346 348 347 347 350 350 358 360 359 358 359 4 4 5 7 6 6 4 360 355 348 343 335 322 316
213 214 216 219 223 229 235 238 243 247 249 256 265 272 287 297 311 326 338 344 349 351 352 353 352 355 355 353 354 354 356 1 2 3 3 3 360 354 350 345 340 334 327 319
216 217 219 222 223 227 233 237 241 245 248 254 262 270 277 288 300 314 328 340 347 353 353 354 357 356 353 352 351 353 356 355 356 358 360 359 355 352 347 343 341 339 332 322
217 218 220 223 225 227 230 235 239 242 247 252 258 265 273 279 290 307 322 332 337 344 349 350 351 350 350 354 350 347 350 354 355 354 354 353 350 350 349 346 343 341 338 329
218 219 219 222 224 228 230 234 238 242 246 250 255 262 269 272 278 294 309 317 329 337 340 341 347 347 347 351 352 349 350 353 354 354 353 352 348 347 346 343 339 337 333 329
220 220 220 222 224 227 230 234 238 241 245 249 254 258 262 266 272 283 299 312 318 323 328 336 342 345 346 347 347 349 347 349 348 348 348 347 344 341 340 337 333 331 329 326
220 221 221 221 224 227 230 234 238 241 245 248 251 255 258 262 267 277 290 303 311 318 324 333 337 339 341 342 343 346 346 345 343 340 339 338 336 334 333 332 329 327 325 322
221 223 224 225 227 230 233 235 238 241 245 250 252 255 259 259 262 273 284 293 301 312 320 326 332 337 337 339 338 337 338 338 337 335 334 335 332 330 329 329 327 327 322 318
223 225 225 224 225 228 233 236 238 241 246 250 253 256 259 259 262 268 277 285 293 304 314 322 328 332 334 334 332 329 328 328 328 328 329 330 330 327 327 328 327 325 321 316
225 226 226 224 224 227 231 234 237 240 244 249 253 256 258 256 259 264 272 280 286 298 307 315 321 326 328 328 327 325 322 320 321 321 322 323 325 325 324 325 329 329 324 319
226 228 228 227 225 227 229 232 236 240 244 248 252 255 257 258 259 265 270 276 281 291 301 307 313 317 320 319 318 317 317 318 318 319 319 318 319 319 320 321 324 324 323 320
227 228 230 229 227 228 231 232 236 241 245 248 251 254 257 259 261 265 268 271 278 287 295 300 305 309 311 312 313 312 313 313 315 314 314 313 314 313 313 315 319 319 318 318
229 230 230 229 230 231 232 233 236 240 244 248 252 254 256 259 261 263 268 273 280 285 290 294 299 302 305 306 308 309 310 308 309 310 309 311 311 311 311 310 312 315 316 316
230 231 232 232 232 234 235 235 237 240 243 246 251 254 255 259 261 263 266 272 279 283 286 290 294 296 298 300 302 305 305 306 306 304 304 305 307 309 310 311 311 312 312 312
231 232 233 234 235 237 237 237 238 241 244 247 250 252 254 257 261 260 264 269 276 279 283 288 291 293 295 296 298 300 301 300 301 302 301 302 303 304 306 308 308 309 310 309
232 233 234 236 237 239 240 241 241 244 246 249 251 252 254 255 257 260 263 267 272 277 282 287 288 289 293 295 296 297 299 300 300 301 302 303 305 304 303 305 305 305 307 307
232 233 235 236 239 241 242 244 245 246 248 250 250 251 253 254 257 259 262 266 271 276 281 284 286 288 291 292 293 295 297 298 299 301 300 300 302 305 305 304 304 305 306 306
232 234 236 238 240 241 243 245 247 248 250 250 250 252 254 256 258 261 264 267 271 275 279 281 283 285 288 289 291 293 294 295 297 298 298 300 301 303 302 303 302 302 302 304
232 234 236 239 241 243 245 246 248 249 250 250 250 252 253 254 257 261 265 268 269 272 276 279 280 282 285 288 290 292 292 292 294 296 297 299 302 303 301 300 299 299 299 299
232 235 237 240 241 244 245 247 247 247 248 249 250 251 251 254 258 261 263 267 270 270 272 275 278 280 281 285 286 288 289 290 293 295 297 299 301 301 300 298 297 297 298 298
Height
5922 5926 5928 5930 5932 5934 5935 5936 5937 5938 5938 5938 5938 5939 5939 5938 5937 5936 5934 5932 5930 5927 5925 5923 5920 5918 5915 5913 5910 5908 5906 5904 5902 5901 5899 5898 5897 5896 5896 5895 5894 5894 5894 5894
5922 5924 5927 5928 5931 5933 5935 5936 5937 5938 5938 5938 5939 5939 5939 5939 5938 5937 5935 5932 5930 5928 5926 5924 5921 5919 5916 5914 5912 5909 5907 5904 5903 5901 5899 5899 5898 5897 5896 5895 5895 5894 5894 5893
5920 5923 5925 5928 5930 5932 5934 5936 5937 5938 5938 5938 5939 5940 5940 5939 5938 5937 5935 5933 5931 5929 5927 5924 5922 5919 5917 5914 5912 5910 5908 5906 5904 5902 5900 5899 5898 5897 5896 5895 5894 5894 5893 5893
5917 5920 5923 5926 5929 5931 5933 5935 5936 5937 5938 5938 5939 5940 5940 5939 5938 5937 5935 5933 5931 5929 5926 5924 5922 5920 5917 5915 5913 5910 5908 5906 5904 5903 5901 5900 5898 5897 5896 5895 5894 5893 5892 5892
5914 5918 5921 5924 5927 5930 5932 5933 5935 5936 5937 5938 5938 5939 5940 5938 5938 5937 5935 5933 5931 5929 5927 5924 5922 5919 5917 5915 5913 5911 5909 5907 5905 5903 5901 5900 5898 5897 5896 5895 5893 5893 5892 5891
5912 5915 5919 5922 5925 5927 5929 5931 5933 5934 5935 5937 5937 5938 5938 5938 5937 5937 5935 5932 5931 5929 5927 5924 5922 5920 5917 5915 5913 5911 5909 5907 5905 5903 5901 5899 5898 5897 5895 5894 5893 5892 5891 5891
5908 5912 5916 5919 5922 5925 5927 5930 5931 5932 5933 5935 5935 5936 5937 5937 5936 5936 5934 5933 5931 5928 5926 5924 5922 5920 5918 5916 5914 5911 5909 5907 5905 5903 5901 5899 5898 5897 5895 5894 5893 5891 5890 5890
5905 5909 5913 5916 5919 5922 5924 5927 5930 5931 5932 5933 5933 5934 5936 5936 5935 5934 5934 5932 5930 5928 5926 5924 5922 5920 5918 5916 5914 5911 5909 5907 5905 5903 5901 5899 5898 5896 5895 5893 5892 5890 5889 5888
5901 5906 5909 5913 5916 5919 5921 5923 5926 5928 5929 5930 5931 5933 5934 5934 5934 5933 5933 5931 5930 5928 5926 5924 5922 5920 5918 5916 5914 5911 5909 5907 5905 5903 5901 5899 5897 5896 5894 5893 5891 5890 5888 5887
5897 5902 5905 5909 5912 5915 5918 5920 5922 5924 5926 5928 5929 5930 5932 5932 5932 5932 5931 5930 5929 5927 5926 5924 5922 5920 5918 5915 5913 5911 5909 5907 5905 5902 5900 5899 5897 5896 5894 5893 5891 5889 5887 5886
5892 5897 5901 5904 5907 5911 5914 5917 5919 5921 5923 5925 5926 5930 5930 5930 5930 5930 5929 5929 5927 5926 5925 5923 5921 5919 5917 5914 5912 5910 5908 5906 5905 5903 5901 5899 5897 5895 5894 5892 5890 5888 5886 5885
5887 5891 5896 5900 5903 5906 5909 5913 5915 5918 5920 5921 5923 5928 5927 5927 5927 5927 5927 5927 5926 5925 5923 5922 5920 5918 5916 5913 5912 5910 5908 5906 5904 5903 5901 5899 5897 5895 5893 5891 5889 5887 5885 5883
5881 5886 5890 5895 5900 5902 5905 5908 5911 5914 5916 5917 5920 5925 5923 5924 5925 5925 5925 5924 5924 5923 5922 5920 5919 5917 5915 5913 5911 5909 5908 5906 5904 5902 5900 5898 5896 5894 5892 5890 5888 5886 5884 5882
5876 5880 5886 5891 5895 5898 5901 5904 5907 5909 5911 5914 5916 5919 5920 5921 5922 5922 5922 5922 5921 5921 5920 5919 5917 5916 5914 5912 5910 5908 5907 5905 5903 5901 5898 5896 5894 5892 5890 5888 5886 5883 5881 5880
5871 5875 5880 5885 5889 5893 5896 5900 5902 5905 5907 5910 5912 5914 5916 5917 5918 5919 5919 5919 5919 5918 5918 5917 5915 5914 5912 5910 5909 5907 5905 5903 5901 5899 5897 5894 5892 5890 5888 5886 5884 5881 5879 5877
5865 5870 5875 5879 5884 5887 5891 5894 5897 5900 5902 5905 5907 5910 5911 5913 5914 5915 5916 5916 5916 5916 5915 5914 5913 5912 5910 5908 5906 5905 5903 5901 5899 5896 5894 5892 5890 5888 5886 5884 5882 5879 5877 5875
5859 5865 5869 5874 5878 5881 5885 5889 5892 5895 5898 5901 5903 5906 5907 5909 5910 5911 5912 5913 5912 5912 5912 5911 5910 5908 5907 5905 5904 5902 5900 5898 5895 5893 5891 5889 5887 5885 5884 5881 5879 5877 5875 5872
5854 5859 5863 5868 5872 5875 5882 5884 5887 5890 5893 5896 5898 5900 5902 5904 5906 5907 5908 5908 5909 5908 5908 5907 5906 5905 5903 5901 5899 5897 5896 5894 5892 5890 5888 5886 5884 5882 5880 5878 5876 5874 5871 5869
5848 5853 5857 5861 5865 5869 5874 5878 5881 5885 5888 5890 5893 5895 5897 5899 5901 5902 5903 5904 5904 5904 5903 5902 5901 5900 5899 5897 5896 5894 5892 5890 5888 5886 5884 5882 5880 5878 5876 5874 5872 5870 5868 5866
5841 5846 5851 5855 5858 5862 5869 5872 5875 5879 5882 5885 5887 5890 5892 5894 5896 5898 5899 5899 5899 5899 5898 5898 5896 5895 5894 5893 5891 5890 5888 5886 5884 5881 5879 5878 5876 5874 5872 5870 5868 5866 5864 5861
5834 5838 5843 5847 5852 5856 5861 5865 5869 5873 5876 5879 5881 5884 5886 5888 5891 5893 5893 5893 5893 5893 5893 5892 5891 5890 5889 5888 5887 5885 5883 5882 5879 5876 5873 5872 5871 5869 5868 5866 5864 5861 5859 5857
5827 5831 5836 5840 5845 5851 5854 5858 5863 5866 5869 5872 5874 5877 5879 5882 5884 5885 5886 5887 5887 5887 5887 5887 5885 5884 5883 5882 5881 5879 5878 5876 5874 5872 5870 5868 5866 5864 5862 5860 5858 5856 5854 5851
5819 5824 5829 5834 5840 5844 5847 5851 5854 5858 5861 5864 5867 5870 5872 5874 5876 5878 5879 5879 5880 5881 5881 5880 5879 5878 5877 5876 5875 5873 5872 5870 5868 5867 5865 5863 5861 5859 5857 5854 5852 5850 5848 5845
5811 5816 5821 5826 5831 5836 5840 5843 5847 5850 5853 5856 5859 5862 5864 5867 5868 5870 5871 5872 5873 5873 5873 5873 5872 5872 5871 5869 5868 5867 5865 5864 5862 5861 5859 5857 5855 5853 5850 5848 5846 5844 5842 5840
5802 5808 5813 5818 5823 5827 5831 5835 5839 5842 5845 5848 5851 5854 5856 5859 5860 5862 5863 5863 5864 5864 5865 5865 5865 5864 5863 5863 5861 5860 5859 5857 5856 5854 5853 5851 5848 5846 5843 5841 5840 5838 5836 5834
5794 5800 5805 5810 5815 5819 5823 5827 5830 5833 5836 5839 5842 5845 5848 5850 5852 5854 5855 5856 5856 5856 5856 5856 5857 5857 5856 5855 5854 5853 5852 5850 5849 5848 5846 5844 5842 5839 5837 5835 5833 5831 5829 5827